Location: Anciles
(42.5833°N, 0.5167°E)
Time: 06:48:58
(UTC+00:00)

Cosmos 292 Rocket - Pass Details

Date: 10 December 2019
Orbit: 673 x 694 km, 74.0° (Epoch: 26 January)

Event Time Altitude Azimuth Distance (km) Brightness Sun altitude
Rises 17:38:01 0° 342° (NNW) 3,081 7.1 -13.1°
Reaches altitude 10° 17:40:22 10° 346° (NNW) 2,160 6.3 -13.5°
Maximum altitude 17:45:13 65° 68° (ENE) 766 3.7 -14.3°
Drops below altitude 10° 17:50:01 10° 150° (SSE) 2,141 6.2 -15.2°
Sets 17:52:20 0° 154° (SSE) 3,051 7.0 -15.6°
